This is the latest recevied weather packets stored in our database for station/object OE9FWV. If no packets are shown the sender has not sent any weather packets the latest 10 day(s).
| Time | Temp. | Humidity | Pressure | Rain* | Wind** | Luminosity | Snow |
|---|---|---|---|---|---|---|---|
| 1777900438 | 25° C | 39% | 1009.9 hPa | 0 mm | - | - | - |
| 1777899834 | 25° C | 39% | 1009.9 hPa | 0 mm | - | - | - |
| 1777899233 | 25° C | 36% | 1010 hPa | 0 mm | - | - | - |
| 1777898629 | 25° C | 36% | 1010.1 hPa | 0 mm | - | - | - |
| 1777897422 | 24.44° C | 40% | 1010.4 hPa | 0 mm | - | - | - |
| 1777896816 | 23.33° C | 41% | 1010.4 hPa | 0 mm | - | - | - |
| 1777895615 | 23.33° C | 43% | 1010.8 hPa | 0 mm | - | - | - |
| 1777895015 | 23.33° C | 44% | 1010.9 hPa | 0 mm | - | - | - |
| 1777894412 | 22.78° C | 45% | 1011 hPa | 0 mm | - | - | - |
| 1777893207 | 22.22° C | 48% | 1011.2 hPa | 0 mm | - | - | - |
| 1777892004 | 21.11° C | 48% | 1011.6 hPa | 0 mm | - | - | - |
| 1777891404 | 20.56° C | 49% | 1011.7 hPa | 0 mm | - | - | - |
| 1777890801 | 20° C | 50% | 1011.8 hPa | 0 mm | - | - | - |
| 1777890197 | 20.56° C | 48% | 1012 hPa | 0 mm | - | - | - |
| 1777888990 | 21.11° C | 50% | 1012.4 hPa | 0 mm | - | - | - |
| 1777888387 | 20.56° C | 52% | 1012.4 hPa | 0 mm | - | - | - |
| 1777887782 | 20.56° C | 53% | 1012.6 hPa | 0 mm | - | - | - |
| 1777887180 | 20° C | 54% | 1012.6 hPa | 0 mm | - | - | - |
| 1777886577 | 19.44° C | 55% | 1012.7 hPa | 0 mm | - | - | - |
| 1777885972 | 18.89° C | 60% | 1012.8 hPa | 0 mm | - | - | - |
| 1777885367 | 18.89° C | 62% | 1012.8 hPa | 0 mm | - | - | - |
| 1777884763 | 18.33° C | 61% | 1013 hPa | 0 mm | - | - | - |
| 1777884163 | 18.33° C | 62% | 1013.1 hPa | 0 mm | - | - | - |
| 1777883562 | 18.33° C | 62% | 1013.2 hPa | 0 mm | - | - | - |
| 1777882958 | 17.78° C | 62% | 1013.3 hPa | 0 mm | - | - | - |
* Rain latest hour (hover to see other rain measurements)
** Current wind speed in m/s (hover to see current wind gust speed)